User: anonymous   Login
Location: Bittelbronn
(48.4454°N, 8.5870°E)
Time: 20:27:18
(UTC+00:00)
Language:

Cosmos 1400 Rocket - Orbit

View from above orbital plane
View from above orbital plane
View from above satellite
View from above satellite

Ground track
Ground track

The orbit data is extracted from the following two-line orbital elements,

1 13403U 82079B   24197.92419597  .00006060  00000-0  32104-3 0  9991
2 13403  81.1496 178.7819 0030481  33.3634 326.9506 15.14842244286261
Epoch (UTC): 15 July 2024 22:10:50
Eccentricity: 0.0030481
inclination: 81.1496°
perigee height: 500 km
apogee height: 542 km
right ascension of ascending node: 178.7819°
argument of perigee: 33.3634°
revolutions per day: 15.14842244
mean anomaly at epoch: 326.9506°
orbit number at epoch: 28626

The dashed part of the orbit path shows where the satellite is in the earth's shadow,  

DLR